Location: Newark
(33.5333°N, 7.5833°W)
Time: 08:53:54
(UTC+00:00)

N. Korean satellite - Visible Passes

Search period start: 18 September 2020 00:00
Search period end: 28 September 2020 00:00
Orbit: 455 x 503 km, 97.2° (Epoch: 17 September)

Date Brightness Start Highest point End Pass type
(mag) Time Alt. Az. Time Alt. Az. Time Alt. Az.
18 Sep 9.4 05:20:02 10° NE 05:22:58 22° E 05:25:51 10° SSE visible
21 Sep 8.4 05:34:58 10° NNE 05:38:21 36° E 05:41:41 10° SSE visible
22 Sep 9.8 05:09:54 10° NE 05:12:14 16° E 05:14:32 10° SE visible
24 Sep 7.2 05:50:04 10° NNE 05:53:40 62° E 05:57:12 10° S visible
25 Sep 9.1 05:24:33 10° NE 05:27:37 25° E 05:30:37 10° SSE visible
26 Sep 10.1 05:00:12 10° ENE 05:01:27 11° E 05:02:40 10° ESE visible
